Probability
1 2 3 2 0 0 0 0 0 2 9 22 28 22 10 2 0 0 0 0 0 0 0 0 0 0 0 0 0 0 0 0 0 0 0 0 0 0 0 0 0 0 0
3 2 3 2 0 0 0 0 0 1 5 15 24 22 12 4 2 1 1 0 0 0 0 0 0 0 0 0 0 0 0 0 0 0 0 0 0 0 0 0 0 0 0
4 2 1 1 1 1 1 1 0 0 1 7 14 17 12 7 4 2 2 1 0 0 0 0 0 0 0 0 0 0 0 0 0 0 0 0 0 0 0 0 0 0 0
3 1 0 1 1 2 2 1 1 1 1 2 5 8 8 6 4 3 2 1 0 1 1 1 1 0 0 0 0 0 0 0 0 0 0 0 0 0 0 0 0 0 0
1 1 1 1 1 1 1 1 4 7 6 2 2 3 6 8 6 4 6 6 4 2 3 3 4 2 1 1 1 1 0 0 0 0 0 0 0 0 0 0 0 0 0
1 2 6 9 7 2 1 3 12 22 19 10 6 10 16 15 7 7 15 20 13 5 5 8 7 4 2 2 3 2 1 0 0 0 0 0 0 1 0 0 0 0 0
1 2 10 19 17 8 5 13 27 37 34 25 21 29 37 26 9 8 20 29 28 21 16 14 9 4 1 1 1 1 0 0 0 0 0 0 0 0 0 0 0 0 0
1 2 7 15 23 24 21 27 39 45 45 39 33 40 46 32 11 8 17 32 45 42 26 12 5 1 0 0 0 0 0 0 0 0 0 0 0 0 0 0 0 0 1
2 3 5 10 20 33 34 33 43 57 61 54 41 36 36 26 15 15 21 33 43 35 17 5 1 0 0 0 0 0 0 0 0 0 0 0 0 0 0 0 0 1 2
5 6 9 12 14 20 23 24 38 57 64 58 45 31 22 17 18 22 29 32 24 12 3 0 0 0 0 0 0 0 0 0 0 0 0 0 0 0 0 0 0 0 1
12 10 10 10 6 5 6 9 19 31 37 38 36 28 18 16 17 18 23 21 9 1 0 0 0 0 0 0 0 0 0 0 0 0 0 0 0 0 0 0 0 0 0
16 10 6 5 2 1 1 1 3 7 9 14 20 20 19 20 16 11 9 7 3 0 0 0 0 0 0 0 0 0 0 0 0 0 0 0 0 0 0 0 0 0 0
7 5 3 1 0 0 0 0 0 0 1 4 8 11 15 15 10 5 1 0 0 0 0 0 0 0 0 0 0 0 0 0 0 0 0 0 0 0 0 0 0 0 0
1 1 1 0 0 0 0 0 0 0 0 0 1 3 5 5 2 1 0 0 0 0 0 0 0 0 0 0 0 0 0 0 0 0 0 0 0 0 0 0 0 0 0
2 1 0 0 0 0 1 1 0 0 0 0 0 0 0 0 0 0 0 0 0 0 0 0 0 0 0 0 0 0 0 0 0 0 0 0 0 0 0 0 0 0 0
4 3 2 1 0 2 4 3 1 0 0 0 0 0 0 0 0 0 0 0 0 0 0 0 0 0 0 0 0 0 0 0 0 0 0 0 0 0 0 0 0 0 0
16 22 21 10 6 10 11 6 1 0 0 0 0 0 0 0 0 0 0 0 0 0 0 0 0 0 0 0 0 0 0 0 0 0 0 0 0 0 0 0 0 0 0
39 56 55 31 20 21 16 6 1 0 0 0 0 0 0 0 0 0 0 1 1 1 0 1 2 4 4 3 1 1 0 0 0 0 0 0 0 0 0 0 0 0 0
65 80 80 58 38 24 12 5 1 0 0 0 0 0 0 0 0 0 5 15 20 15 12 15 16 13 9 5 2 1 0 0 0 0 0 0 0 0 0 0 0 0 0
84 90 87 73 52 25 8 4 2 0 0 0 3 6 6 5 9 12 22 42 51 39 31 33 29 17 7 3 1 1 0 0 0 0 0 0 0 0 0 0 0 0 0
94 94 88 73 51 27 10 6 4 1 1 3 13 27 28 23 29 37 45 58 59 43 32 28 22 10 2 0 0 0 0 0 0 0 0 0 0 0 0 0 0 0 0
93 91 83 68 45 23 12 12 12 9 10 15 32 50 47 36 36 41 49 49 41 29 23 22 19 11 3 1 1 0 0 0 0 0 0 0 0 0 0 0 0 0 0
76 75 73 67 48 24 15 20 26 27 27 31 42 46 37 26 23 26 31 34 32 29 30 34 33 24 12 4 2 0 0 0 0 0 0 0 0 0 0 0 0 0 0
42 44 51 55 44 27 18 24 32 34 31 29 26 21 15 11 11 12 16 24 30 35 41 44 40 33 21 8 2 1 1 1 1 0 0 0 0 0 0 0 0 0 0
13 17 24 29 25 19 16 19 22 22 18 13 8 5 4 5 5 6 9 15 21 27 32 35 32 27 19 9 3 2 1 1 1 0 0 0 0 0 0 0 0 0 0
3 5 10 14 13 11 11 12 13 11 7 4 3 3 2 1 2 3 5 7 10 14 19 22 21 17 12 7 4 2 1 1 1 0 0 0 0 0 0 0 0 0 0
Wind_Speed
10 14 12 11 10 10 9 8 8 10 11 11 12 12 12 12 10 10 9 7 5 5 6 6 6 6 7 7 7 7 8 7 7 5 2 1 3 3 2 2 5 5 10
10 13 11 10 8 10 10 9 8 9 11 12 12 11 12 11 9 8 8 6 5 5 6 6 6 6 6 6 6 6 6 6 5 5 4 6 6 4 2 4 7 2 6
11 12 12 9 9 10 10 9 8 8 9 11 11 11 11 11 10 9 7 6 5 5 4 5 5 5 5 5 5 5 5 4 4 3 6 7 3 6 3 5 9 7 6
11 10 12 10 11 13 11 8 8 9 9 10 10 10 10 9 9 8 7 5 4 3 2 2 3 3 4 5 5 5 4 4 4 6 7 2 3 9 7 8 9 9 8
11 10 13 11 12 14 13 8 7 9 10 8 9 10 10 9 7 5 7 5 3 2 2 3 4 4 5 5 6 6 5 4 7 11 5 4 4 8 9 10 8 5 7
13 13 12 12 13 12 14 9 8 10 10 8 7 8 9 9 7 4 6 7 6 3 4 6 7 6 7 8 8 7 6 5 9 7 5 3 2 11 9 8 8 6 6
13 13 14 13 10 10 12 11 9 9 8 7 7 8 9 7 4 2 3 6 7 4 4 9 12 14 16 13 11 9 8 7 6 3 4 5 11 12 10 10 8 6 6
12 12 12 14 11 10 10 9 10 8 8 8 8 8 8 7 5 4 6 6 6 7 11 16 20 18 15 13 12 10 9 9 5 4 5 7 11 11 10 11 9 7 6
11 10 9 12 12 13 12 10 8 8 9 9 8 7 8 7 6 5 7 7 10 12 11 12 13 12 11 9 9 10 10 7 4 2 3 3 11 11 10 10 9 9 8
9 9 8 8 7 9 11 11 11 10 10 10 9 7 7 6 6 5 4 7 10 10 11 10 9 7 8 8 7 7 5 3 7 6 3 7 9 9 9 9 10 10 10
9 8 9 8 6 7 9 9 10 10 9 10 9 7 5 4 5 5 7 10 12 12 11 10 7 5 6 6 5 6 5 5 7 5 4 8 10 10 8 9 9 9 10
10 10 8 8 8 7 6 6 5 5 6 7 6 6 5 5 5 6 9 10 10 9 10 9 7 8 6 1 2 3 2 3 3 1 2 7 10 10 10 9 9 9 10
10 9 9 7 5 6 5 4 4 3 4 6 6 5 5 4 4 5 5 5 6 6 6 6 5 1 2 3 3 4 4 4 4 3 1 1 8 11 11 10 9 9 9
10 9 9 8 6 5 5 4 4 3 2 3 5 3 3 3 3 3 3 3 3 3 3 1 3 3 4 5 6 7 7 5 5 5 1 1 5 9 10 10 10 9 9
10 9 9 8 7 6 5 4 4 4 3 4 4 5 4 4 4 3 2 2 3 2 3 2 3 4 5 6 6 7 8 8 7 6 5 2 2 7 10 12 11 10 10
11 10 9 8 8 7 6 5 5 5 6 4 5 6 4 3 3 3 2 1 1 3 4 4 4 5 6 7 8 8 9 10 9 9 8 6 6 8 9 11 12 11 11
9 9 8 7 7 7 8 7 6 6 6 5 5 5 5 3 3 0 1 0 1 2 3 4 5 6 7 8 10 10 10 11 11 11 11 9 7 10 12 11 11 11 11
8 9 9 7 7 7 7 6 5 6 6 5 5 5 5 3 2 1 1 1 2 4 5 6 7 8 9 10 10 11 11 12 14 13 12 11 9 8 10 14 12 11 11
7 8 9 8 8 6 6 6 5 5 5 5 4 4 5 4 4 3 3 3 5 6 6 6 7 8 9 11 12 12 12 13 14 14 14 13 13 12 10 9 13 12 13
5 7 11 10 11 3 1 4 4 5 4 4 4 4 5 5 5 4 4 4 5 6 6 6 7 8 9 10 11 12 13 12 11 11 12 12 12 12 12 12 9 10 14
6 8 12 14 13 2 8 5 4 3 4 3 4 5 4 2 2 4 5 3 4 5 5 6 7 9 9 9 10 13 13 13 13 11 10 10 10 11 12 13 11 10 8
4 6 11 10 10 7 7 1 2 2 3 3 3 3 3 4 5 4 5 5 5 6 6 6 7 9 10 11 11 14 15 16 13 11 10 8 11 11 13 14 13 13 11
7 8 11 11 11 6 2 1 4 4 4 3 2 1 4 5 5 5 6 7 7 8 8 8 9 12 13 13 12 13 16 16 14 14 13 12 12 12 13 13 13 15 15
11 10 10 11 11 7 3 3 4 4 5 6 5 5 4 4 6 7 7 8 9 9 10 10 11 12 14 14 13 13 15 16 15 17 15 14 13 13 13 12 13 13 14
13 13 13 13 12 11 10 9 7 7 6 4 6 7 6 6 8 9 9 10 11 11 12 13 14 14 13 15 15 14 14 14 16 17 17 16 14 12 11 11 11 11 12
14 13 13 14 14 13 13 13 12 11 9 9 9 9 9 10 10 11 12 12 13 13 13 14 15 16 15 16 15 15 15 16 15 16 17 18 16 14 12 11 11 11 11
Wind_Direction
130 120 125 129 125 118 111 105 102 100 96 103 116 120 124 126 126 127 128 134 128 102 80 72 71 61 57 63 67 64 54 45 36 32 352 238 181 163 172 175 210 197 131
129 127 122 112 117 119 116 113 111 110 110 111 111 115 117 115 113 109 111 107 94 76 64 60 79 84 77 70 68 68 62 48 42 23 330 256 190 153 222 252 261 358 144
127 132 124 111 118 118 112 109 110 111 111 111 109 106 109 110 108 104 103 106 100 86 71 66 76 71 66 59 52 50 49 43 28 345 274 268 115 88 348 286 261 237 184
123 128 118 118 113 105 101 110 115 112 110 113 110 105 98 95 98 106 108 107 107 103 89 85 70 30 24 8 2 6 9 1 324 275 251 318 20 77 14 333 300 234 209
117 110 104 115 110 111 115 114 114 115 114 120 123 119 110 97 82 84 94 83 84 84 47 23 17 1 350 346 341 334 330 325 299 271 278 57 350 57 22 345 327 238 228
119 108 101 102 102 110 111 120 132 120 115 119 118 116 112 97 81 70 86 87 88 67 19 34 25 12 2 357 352 346 342 328 285 295 338 101 61 31 3 333 336 324 293
110 100 86 76 90 98 109 136 125 105 103 106 115 113 105 106 107 120 73 75 89 82 45 43 38 37 41 37 32 31 27 354 301 339 326 3 37 18 346 336 324 309 295
111 107 104 87 85 102 112 101 100 103 105 112 114 116 119 130 136 110 61 51 53 61 66 61 62 56 46 31 17 16 26 3 323 8 10 30 30 6 353 349 344 328 309
124 116 116 109 99 85 80 82 91 98 100 104 105 116 120 125 120 90 62 59 70 76 83 83 74 61 66 58 38 23 22 357 334 345 323 27 16 351 349 347 342 341 329
126 119 112 110 122 121 102 94 92 88 90 94 100 111 116 128 114 100 94 96 93 90 93 105 118 129 97 88 77 54 4 332 13 6 13 26 353 343 340 339 333 331 325
134 135 132 123 114 97 102 114 108 104 113 118 114 111 140 118 109 102 78 86 94 93 97 107 125 149 161 143 100 62 21 28 18 16 10 356 335 331 328 327 324 316 315
144 139 118 118 121 114 109 110 104 122 112 101 97 104 107 100 91 100 90 93 99 112 122 131 158 187 214 183 132 190 29 19 63 36 340 338 323 321 320 314 310 309 311
133 123 109 101 99 107 104 123 119 112 111 109 98 93 97 107 120 126 122 135 138 165 157 163 170 138 22 359 345 341 351 355 355 337 96 288 310 313 308 297 296 300 303
141 130 123 127 124 110 124 124 116 106 88 90 88 106 127 124 113 111 112 115 126 98 81 35 63 11 347 347 340 336 337 342 341 322 348 130 309 308 300 292 284 289 297
149 146 141 140 143 141 134 112 107 105 91 81 103 78 73 99 109 119 91 61 59 59 63 16 4 331 314 313 313 311 309 312 312 308 306 293 266 284 290 284 279 285 294
163 162 149 151 150 143 118 109 110 97 103 103 88 86 81 92 105 121 153 138 54 15 2 334 329 310 304 300 297 301 301 301 301 296 291 287 224 229 263 277 282 290 293
174 160 154 154 144 129 120 119 108 107 109 98 94 98 92 95 102 130 117 217 21 335 297 294 291 290 292 297 297 296 293 295 296 295 294 294 272 221 223 237 256 272 283
187 172 158 140 128 117 111 108 101 106 110 107 110 112 106 106 104 227 181 235 291 280 286 290 292 295 293 292 293 294 295 295 290 285 279 280 286 280 229 215 222 247 260
197 181 147 133 113 107 108 103 105 116 119 121 137 145 146 162 177 227 237 242 251 269 274 280 286 296 297 293 291 290 291 291 289 286 287 286 283 277 272 225 205 223 239
193 163 139 124 91 29 154 131 132 132 129 138 147 143 164 179 196 232 250 252 266 278 289 309 311 299 293 291 293 292 288 283 284 284 282 277 271 267 265 261 246 233 219
194 152 135 129 119 167 252 184 173 142 131 143 140 150 163 179 253 280 289 280 287 303 318 308 300 299 297 300 297 293 291 288 275 269 274 272 279 274 264 269 269 266 253
151 133 137 148 135 182 262 357 71 82 108 112 119 98 37 2 338 324 339 328 342 320 301 297 305 299 295 296 297 300 295 291 284 280 280 273 264 272 270 268 266 278 284
96 118 121 127 130 142 77 223 134 155 154 165 122 39 19 343 340 353 348 338 331 312 310 315 300 297 296 297 290 287 294 292 303 293 285 276 276 273 271 270 272 278 279
91 98 102 110 115 112 114 97 62 39 30 24 353 6 335 347 345 343 340 335 325 315 306 298 297 299 290 288 289 283 281 287 287 288 280 276 272 270 269 270 270 271 279
86 88 86 84 78 71 64 53 49 41 31 12 4 342 328 340 331 330 329 326 315 304 301 297 293 289 287 286 287 289 286 279 273 275 280 277 271 269 270 274 283 284 283
76 78 75 71 65 60 57 52 47 39 20 5 355 336 342 331 323 323 327 319 309 303 301 300 296 291 288 287 286 286 283 280 280 278 278 277 275 271 271 265 262 267 271